STARLINK-31457, 59414

Orbit data source: Space-Track

STARLINK-31457, 59414 is a payload satellite owned by SpaceX/Seattle (US) in LEO that was launched on Fri, 05 Apr 2024 UTC via an FALCON 9 launch vehicle from the Air Force Eastern Test Range (AFETR). Payload-class satellites include a variety of spacecraft equipped with specific instruments for various scientific and technological missions. These include communications satellites like Starlink; space stations such as the ISS; scientific satellites like the Hubble; Earth observation satellites from companies like Planet Labs, Umbra, and HawkEye 360; GPS; miniature CubeSats for education and research; and military/defense satellites.

Loading next visibility...
Identifier
59414, 2024-064S
Orbit
LEO
Country
Flag of USUS
Related business
Manufacturer
SpaceX/Seattle
Mission
Operational Commercial Communications
Bus & Motor
STARLINK V2M, Unknown motor
Mass
730 kg wet, ~700 kg dry
Launch date (UTC)
2024-04-05 (2 years ago)
Launch vehicle
FALCON 9
Launch site
Air Force Eastern Test Range (AFETR)
Object type
Payload
Rocket body
Debris
Shape & HBR
Box + 2 Pan, 17.7 m
Radar Cross Section
33.884 m², Large (>1 m²)

Expand to show TLE details & history
Last TLE update: 2 days ago

TLE from 2 days ago
0 STARLINK-31457
1 59414U 24064S   26171.07822280  .00000222  00000-0  17577-4 0  9992
2 59414  42.9991 191.0819 0001262 275.7953  84.2755 15.27575935124969
Epoch: 2026-06-20T01:52Z
TLE epoch observation values (Epoch: 2026-06-20T01:52:38.449Z)
Latitude
-0.00002°
Longitude
-105.37634°
Altitude
482.75 km
Speed
7.626 km/s
True Right ascension
12h 44m 19s
True Declination
0° 00' 00"
Sunlit
Object was in daylight at epoch
Visualization orbit readout
Latitude
Unknown
Longitude
Unknown
Altitude
Unknown
Speed
Unknown
Apparent Right ascension
Unknown
Apparent Declination
Unknown
Sunlit
N/A
Visualization observer readout
Local Sidereal Time
00:25:43
Azimuth
Unknown
Elevation
Unknown
Doppler factor
Unknown
Orbital elements
Apogee altitude
485.873 km
Perigee altitude
484.14 km
Semi-major axis
6,863.144 km
Eccentricity
0.00013
Inclination
42.9991°
RAAN
191.0819°
Arg. of periapsis
275.7953°
True anomaly
84.28989°
Mean anomaly
84.2755°
Eccentric anomaly
84.28269°
Mean motion
3.81732 °/min
Orbital period
94.31 mins
BSTAR
0.000017577
Loading maneuver chart data...
Computing Atmospheric mass density...
Loading historical data...
Loading historical data...
Loading historical data...
Loading historical data...
Loading historical data...
Loading historical data...
Loading historical data...

Documentation

Showing up to 5 results
|